WetterOnline ( http://www.wetteronline.de )

Wetter aktuell Blaichach

Aktuelles Wetter: Oberstdorf (812m)

6-stündlich | Neueste Meldungen
Ortszeit Temperatur Wetter
Fr, 22.03. 13:00 13.8° C leicht bewölkt
Fr, 22.03. 7:00 -3.7° C wolkenlos
Fr, 22.03. 1:00 -2.1° C wolkenlos
Do, 21.03. 19:00 4.1° C fast wolkenlos
Do, 21.03. 13:00 7.4° C wolkenlos
Do, 21.03. 7:00 -6.9° C wolkenlos
Do, 21.03. 1:00 -3.5° C wolkenlos
Mi, 20.03. 19:00 0.5° C wolkenlos
Ortszeit Temperatur Wetter
Fr, 22.03. 17:10 9.5° C wolkig
Fr, 22.03. 17:00 9.7° C leicht bewölkt
Fr, 22.03. 16:50 9.7° C leicht bewölkt
Fr, 22.03. 16:40 12.8° C fast wolkenlos
Fr, 22.03. 16:30 15.2° C leicht bewölkt
Fr, 22.03. 16:20 15.2° C leicht bewölkt
Fr, 22.03. 16:00 15.2° C leicht bewölkt
Fr, 22.03. 15:30 14.5° C leicht bewölkt
Fr, 22.03. 15:00 15.2° C leicht bewölkt
Fr, 22.03. 14:30 14.4° C wolkig
Ortszeit Relative Feuchte Sichtweite
Fr, 22.03. 13:00 28% 65 km
Fr, 22.03. 7:00 93% 65 km
Fr, 22.03. 1:00 95% 18 km
Do, 21.03. 19:00 71% 40 km
Do, 21.03. 13:00 38% 70 km
Do, 21.03. 7:00 90% 30 km
Do, 21.03. 1:00 89% 26 km
Mi, 20.03. 19:00 76% 45 km
Ortszeit Relative Feuchte Sichtweite
Fr, 22.03. 17:10 53% -
Fr, 22.03. 17:00 53% 23 km
Fr, 22.03. 16:50 53% -
Fr, 22.03. 16:40 40% -
Fr, 22.03. 16:30 32% 14 km
Fr, 22.03. 16:20 32% -
Fr, 22.03. 16:00 33% 14 km
Fr, 22.03. 15:30 30% 16 km
Fr, 22.03. 15:00 29% 45 km
Fr, 22.03. 14:30 32% 70 km
Ortszeit Niederschlagsmenge Niederschlagsart
Fr, 22.03. 13:00 0.0 l/m2 in 6 Std. -
Fr, 22.03. 7:00 0.0 l/m2 in 12 Std. -
Fr, 22.03. 1:00 0.0 l/m2 in 6 Std. -
Do, 21.03. 19:00 0.0 l/m2 in 12 Std. -
Do, 21.03. 13:00 0.0 l/m2 in 6 Std. -
Do, 21.03. 7:00 0.0 l/m2 in 12 Std. -
Do, 21.03. 1:00 0.0 l/m2 in 6 Std. -
Mi, 20.03. 19:00 0.0 l/m2 in 12 Std. -
Ortszeit Niederschlagsmenge Niederschlagsart
Fr, 22.03. 17:10 keine Meldung -
Fr, 22.03. 17:00 0.0 l/m2 in 1 Std. -
Fr, 22.03. 16:50 keine Meldung -
Fr, 22.03. 16:40 keine Meldung -
Fr, 22.03. 16:30 0.0 l/m2 in 1 Std. -
Fr, 22.03. 16:20 keine Meldung -
Fr, 22.03. 16:00 0.0 l/m2 in 1 Std. -
Fr, 22.03. 15:30 0.0 l/m2 in 1 Std. -
Fr, 22.03. 15:00 0.0 l/m2 in 1 Std. -
Fr, 22.03. 14:30 0.0 l/m2 in 1 Std. -
Ortszeit Stärke Spitze Richtung
km/h Bft. km/h Grad Sektor
Fr, 22.03. 13:00 4 1 11 220° SW
Fr, 22.03. 7:00 6 1 9 160° S
Fr, 22.03. 1:00 6 1 15 170° S
Do, 21.03. 19:00 15 3 19 170° S
Do, 21.03. 13:00 6 1 7 210° SW
Do, 21.03. 7:00 6 1 9 160° S
Do, 21.03. 1:00 6 1 13 170° S
Mi, 20.03. 19:00 11 2 22 170° S
Ortszeit Stärke Spitze Richtung
km/h Bft. km/h Grad Sektor
Fr, 22.03. 17:10 9 2 - 170° S
Fr, 22.03. 17:00 4 1 18 230° SW
Fr, 22.03. 16:50 4 1 - 230° SW
Fr, 22.03. 16:40 7 2 - 330° NW
Fr, 22.03. 16:30 11 2 18 350° N
Fr, 22.03. 16:20 11 2 - 350° N
Fr, 22.03. 16:00 11 2 18 350° N
Fr, 22.03. 15:30 14 3 18 360° N
Fr, 22.03. 15:00 13 3 22 350° N
Fr, 22.03. 14:30 15 3 22 350° N
Ortszeit Untergrenze Bedeckung Gattung
total tief tief mittel hoch
Fr, 22.03. 13:00 9000 m 6/8 0/8 - - -
Fr, 22.03. 7:00 - 0/8 0/8 - - -
Fr, 22.03. 1:00 - 0/8 0/8 - - -
Do, 21.03. 19:00 9000 m 2/8 0/8 - - -
Do, 21.03. 13:00 - 0/8 0/8 - - -
Do, 21.03. 7:00 - 0/8 0/8 - - -
Do, 21.03. 1:00 - 0/8 0/8 - - -
Mi, 20.03. 19:00 - 0/8 0/8 - - -
Ortszeit Bedeckungsgrad in Achtel und Wolkenuntergrenze
Fr, 22.03. 17:10 6(7800m) 7(8700m)
Fr, 22.03. 17:00 4(7800m) 4(8400m)
Fr, 22.03. 16:50 4(7800m) 4(8400m)
Fr, 22.03. 16:40 1(7800m) 2(9000m)
Fr, 22.03. 16:30 3(8700m) 4(9000m)
Fr, 22.03. 16:20 3(8700m) 4(9000m)
Fr, 22.03. 16:00 3(8700m) 4(9000m)
Fr, 22.03. 15:30 3(9000m)
Fr, 22.03. 15:00 1(8700m) 3(10500m)
Fr, 22.03. 14:30 7(10500m) 8(10500m)
Ortszeit Stationsdruck (hPa) Tendenz (hPa in 3 Std.)
Fr, 22.03. 13:00 934 - 1,0
Fr, 22.03. 7:00 936 + 0,9
Fr, 22.03. 1:00 935 - 0,6
Do, 21.03. 19:00 935 + 0,8
Do, 21.03. 13:00 936 - 0,4
Do, 21.03. 7:00 936 - 0,4
Do, 21.03. 1:00 937 - 0,7
Mi, 20.03. 19:00 937 + 0,9
Ortszeit Stationsdruck (hPa) Tendenz (hPa in 3 Std.)
Fr, 22.03. 17:10 934 keine Meldung
Fr, 22.03. 17:00 934 0,0
Fr, 22.03. 16:50 934 keine Meldung
Fr, 22.03. 16:40 934 keine Meldung
Fr, 22.03. 16:30 934 - 0,2
Fr, 22.03. 16:20 934 keine Meldung
Fr, 22.03. 16:00 934 - 0,4
Fr, 22.03. 15:30 934 - 0,6
Fr, 22.03. 15:00 934 - 0,7
Fr, 22.03. 14:30 934 - 0,8
Ortszeit Schneehöhe (cm)
Fr, 22.03. 13:00 6
Fr, 22.03. 7:00 7
Fr, 22.03. 1:00 7
Do, 21.03. 19:00 7
Do, 21.03. 13:00 10
Do, 21.03. 7:00 10
Do, 21.03. 1:00 10
Mi, 20.03. 19:00 10
Ortszeit Schneehöhe (cm)
Fr, 22.03. 17:10 3
Fr, 22.03. 17:00 3
Fr, 22.03. 16:50 3
Fr, 22.03. 16:40 3
Fr, 22.03. 16:30 3
Fr, 22.03. 16:20 3
Fr, 22.03. 16:00 3
Fr, 22.03. 15:30 4
Fr, 22.03. 15:00 4
Fr, 22.03. 14:30 5
Link zu dieser Seite / Seite empfehlen

Das Wetter in ...